| time (UTC) | temp C | wind direction | speed KPH | gust KPH | rain 1hr cm | rain 24hr cm | rain mn cm | humidity % | barometer mb |
| 20260510115249 | 23 | 169 | 4.8 | 17.7 | 0.00 | 0.00 | 0.00 | 44 | 1010.0 |
| 20260510112253 | 23 | 51 | 6.4 | 17.7 | 0.00 | 0.00 | 0.00 | 46 | 1010.4 |
| 20260510110750 | 23 | 126 | 3.2 | 12.9 | 0.00 | 0.00 | 0.00 | 48 | 1010.5 |
| 20260510105249 | 23 | 15 | 3.2 | 9.7 | 0.00 | 0.00 | 0.00 | 47 | 1010.8 |
| 20260510103748 | 23 | 68 | 3.2 | 12.9 | 0.00 | 0.00 | 0.00 | 47 | 1011.0 |
| 20260510102256 | 22 | 13 | 4.8 | 16.1 | 0.00 | 0.00 | 0.00 | 48 | 1011.2 |
| 20260510100748 | 22 | 27 | 4.8 | 16.1 | 0.00 | 0.00 | 0.00 | 50 | 1011.3 |
| 20260510093748 | 20 | 21 | 3.2 | 12.9 | 0.00 | 0.00 | 0.00 | 52 | 1011.6 |
| 20260510092245 | 21 | 284 | 3.2 | 9.7 | 0.00 | 0.00 | 0.00 | 51 | 1011.7 |
| 20260510090744 | 20 | 31 | 3.2 | 11.3 | 0.00 | 0.00 | 0.00 | 52 | 1011.9 |
| 20260510083745 | 19 | 32 | 3.2 | 14.5 | 0.00 | 0.00 | 0.00 | 57 | 1012.0 |
| 20260510082244 | 19 | 259 | 1.6 | 8.0 | 0.00 | 0.00 | 0.00 | 59 | 1012.0 |
| 20260510075242 | 18 | 5 | 4.8 | 16.1 | 0.00 | 0.00 | 0.00 | 61 | 1012.4 |
| 20260510073744 | 17 | 188 | 1.6 | 6.4 | 0.00 | 0.00 | 0.00 | 63 | 1012.6 |
| 20260510072532 | 17 | 286 | 1.6 | 8.0 | 0.00 | 0.00 | 0.00 | 66 | 1012.7 |
| 20260510071907 | 16 | 26 | 3.2 | 14.5 | 0.00 | 0.00 | 0.00 | 69 | 1012.7 |
| 20260510065240 | 15 | 75 | 3.2 | 8.0 | 0.00 | 0.00 | 0.00 | 73 | 1012.8 |
| 20260510063741 | 14 | 97 | 1.6 | 8.0 | 0.00 | 0.00 | 0.00 | 76 | 1012.9 |
| 20260510062243 | 13 | 287 | 1.6 | 4.8 | 0.00 | 0.00 | 0.00 | 80 | 1013.1 |
| 20260510053741 | 8 | 23 | 1.6 | 6.4 | 0.00 | 0.00 | 0.00 | 93 | 1013.3 |
| 20260510052236 | 7 | 64 | 0.0 | 0.0 | 0.00 | 0.00 | 0.00 | 92 | 1013.4 |
| 20260510050735 | 7 | 64 | 0.0 | 0.0 | 0.00 | 0.00 | 0.00 | 92 | 1013.3 |
| 20260510045239 | 6 | 64 | 0.0 | 0.0 | 0.00 | 0.00 | 0.00 | 91 | 1013.4 |
| 20260510043736 | 6 | 64 | 0.0 | 0.0 | 0.00 | 0.00 | 0.00 | 90 | 1013.5 |
| 20260510035233 | 6 | 64 | 0.0 | 1.6 | 0.00 | 0.00 | 0.00 | 89 | 1013.7 |
| 20260510033730 | 6 | 64 | 0.0 | 0.0 | 0.00 | 0.00 | 0.00 | 88 | 1013.7 |
| 20260510030728 | 6 | 64 | 0.0 | 0.0 | 0.00 | 0.00 | 0.00 | 86 | 1013.7 |
| 20260510025228 | 6 | 64 | 0.0 | 0.0 | 0.00 | 0.00 | 0.00 | 86 | 1013.8 |
| 20260510023725 | 6 | 64 | 0.0 | 0.0 | 0.00 | 0.00 | 0.00 | 86 | 1014.0 |
| 20260510022225 | 6 | 64 | 0.0 | 0.0 | 0.00 | 0.00 | 0.00 | 85 | 1013.9 |
| 20260510020725 | 6 | 64 | 0.0 | 0.0 | 0.00 | 0.00 | 0.00 | 84 | 1014.2 |
| 20260510013722 | 7 | 64 | 0.0 | 0.0 | 0.00 | 0.00 | 0.00 | 83 | 1014.2 |
| 20260510012221 | 7 | 64 | 0.0 | 0.0 | 0.00 | 0.00 | 0.00 | 83 | 1014.3 |
| 20260510010723 | 7 | 64 | 0.0 | 0.0 | 0.00 | 0.00 | 0.00 | 82 | 1014.4 |
| 20260510005221 | 7 | 64 | 0.0 | 0.0 | 0.00 | 0.00 | 0.00 | 82 | 1014.5 |
| 20260510003724 | 7 | 64 | 0.0 | 0.0 | 0.00 | 0.00 | 0.00 | 82 | 1014.5 |
| 20260510002221 | 8 | 64 | 0.0 | 0.0 | 0.00 | 0.00 | 0.00 | 81 | 1014.6 |
| 20260510000722 | 8 | 64 | 0.0 | 0.0 | 0.00 | 0.00 | 0.00 | 81 | 1014.8 |
| 20260509235221 | 8 | 64 | 0.0 | 0.0 | 0.00 | 0.00 | 0.00 | 80 | 1014.9 |
| 20260509233718 | 8 | 64 | 0.0 | 0.0 | 0.00 | 0.00 | 0.00 | 79 | 1015.1 |
| 20260509232218 | 9 | 64 | 0.0 | 0.0 | 0.00 | 0.00 | 0.00 | 79 | 1015.2 |
| 20260509230716 | 9 | 64 | 0.0 | 0.0 | 0.00 | 0.00 | 0.00 | 78 | 1015.3 |
| 20260509225215 | 10 | 64 | 0.0 | 0.0 | 0.00 | 0.00 | 0.00 | 77 | 1015.4 |
| 20260509223713 | 10 | 64 | 0.0 | 0.0 | 0.00 | 0.00 | 0.00 | 76 | 1015.4 |
| 20260509222212 | 10 | 64 | 0.0 | 0.0 | 0.00 | 0.00 | 0.00 | 75 | 1015.5 |
| 20260509215211 | 11 | 64 | 0.0 | 0.0 | 0.00 | 0.00 | 0.00 | 72 | 1015.6 |
| 20260509212207 | 12 | 64 | 0.0 | 0.0 | 0.00 | 0.00 | 0.00 | 68 | 1015.6 |
| 20260509210709 | 13 | 64 | 0.0 | 0.0 | 0.00 | 0.00 | 0.00 | 66 | 1015.7 |
| 20260509205207 | 14 | 64 | 0.0 | 0.0 | 0.00 | 0.00 | 0.00 | 64 | 1015.8 |
| 20260509203709 | 14 | 64 | 0.0 | 0.0 | 0.00 | 0.00 | 0.00 | 63 | 1015.9 |
| 20260509202207 | 15 | 64 | 0.0 | 0.0 | 0.00 | 0.00 | 0.00 | 62 | 1015.8 |
| 20260509200709 | 15 | 64 | 0.0 | 6.4 | 0.00 | 0.00 | 0.00 | 61 | 1015.9 |
| 20260509193706 | 16 | 49 | 0.0 | 4.8 | 0.00 | 0.00 | 0.00 | 59 | 1016.1 |
| 20260509192209 | 16 | 52 | 1.6 | 6.4 | 0.00 | 0.00 | 0.00 | 58 | 1016.1 |
| 20260509190702 | 17 | 84 | 1.6 | 9.7 | 0.00 | 0.00 | 0.00 | 56 | 1016.1 |
| 20260509183703 | 18 | 39 | 1.6 | 6.4 | 0.00 | 0.00 | 0.00 | 54 | 1015.8 |
| 20260509182207 | 18 | 314 | 3.2 | 9.7 | 0.00 | 0.00 | 0.00 | 53 | 1015.6 |
| 20260509180702 | 18 | 28 | 1.6 | 8.0 | 0.00 | 0.00 | 0.00 | 52 | 1015.5 |
| 20260509175203 | 19 | 92 | 3.2 | 8.0 | 0.00 | 0.00 | 0.00 | 51 | 1015.6 |
| 20260509173712 | 20 | 284 | 3.2 | 8.0 | 0.00 | 0.00 | 0.00 | 50 | 1015.5 |
| 20260509172203 | 20 | 40 | 1.6 | 12.9 | 0.00 | 0.00 | 0.00 | 50 | 1015.6 |
| 20260509170707 | 20 | 288 | 1.6 | 9.7 | 0.00 | 0.00 | 0.00 | 50 | 1015.5 |
| 20260509165201 | 20 | 103 | 3.2 | 12.9 | 0.00 | 0.00 | 0.00 | 49 | 1015.5 |
| 20260509163701 | 21 | 36 | 1.6 | 12.9 | 0.00 | 0.00 | 0.00 | 50 | 1015.5 |
| 20260509162203 | 21 | 265 | 4.8 | 16.1 | 0.00 | 0.00 | 0.00 | 49 | 1015.6 |
| 20260509160701 | 21 | 48 | 8.0 | 17.7 | 0.00 | 0.00 | 0.00 | 47 | 1015.7 |
| 20260509155203 | 22 | 53 | 3.2 | 19.3 | 0.00 | 0.00 | 0.00 | 46 | 1015.9 |
| 20260509153701 | 21 | 207 | 3.2 | 8.0 | 0.00 | 0.00 | 0.00 | 49 | 1016.2 |
| 20260509152203 | 21 | 43 | 4.8 | 14.5 | 0.00 | 0.00 | 0.00 | 48 | 1016.1 |
| 20260509150701 | 21 | 37 | 6.4 | 17.7 | 0.00 | 0.00 | 0.00 | 49 | 1016.3 |
| 20260509145203 | 21 | 187 | 4.8 | 12.9 | 0.00 | 0.00 | 0.00 | 48 | 1016.3 |
| 20260509143701 | 21 | 105 | 8.0 | 17.7 | 0.00 | 0.00 | 0.00 | 47 | 1016.2 |
| 20260509142200 | 22 | 76 | 4.8 | 17.7 | 0.00 | 0.00 | 0.00 | 46 | 1016.4 |
| 20260509140700 | 23 | 21 | 6.4 | 19.3 | 0.00 | 0.00 | 0.00 | 45 | 1016.4 |
| 20260509135207 | 23 | 5 | 3.2 | 14.5 | 0.00 | 0.00 | 0.00 | 43 | 1016.6 |
| 20260509133704 | 23 | 69 | 4.8 | 12.9 | 0.00 | 0.00 | 0.00 | 44 | 1016.7 |
| 20260509130702 | 22 | 76 | 3.2 | 14.5 | 0.00 | 0.00 | 0.00 | 47 | 1016.9 |
| 20260509123702 | 22 | 60 | 4.8 | 14.5 | 0.00 | 0.00 | 0.00 | 46 | 1017.1 |
| 20260509122205 | 23 | 147 | 3.2 | 9.7 | 0.00 | 0.00 | 0.00 | 45 | 1017.2 |
| 20260509120702 | 23 | 35 | 3.2 | 9.7 | 0.00 | 0.00 | 0.00 | 43 | 1017.3 |